Regional Weather Roundup
Issued by NWS Northern Indiana

Home | Current Version | Previous Version | Graphics & Text | Print | Product List | Glossary On
Versions: 1 2 3 4 5 6 7 8 9 10 11 12 13 14 15 16 17 18 19 20 21 22 23 24 25 26 27 28 29 30 31 32 33 34 35 36 37 38 39 40 41 42 43 44 45 46 47 48 49 50
000
ASUS43 KIWX 211700
RWRIWX

KIWX WEATHER ROUNDUP
NATIONAL WEATHER SERVICE NORTHERN INDIANA
1200 PM EST TUE FEB 21 2017

NOTE: "FAIR" INDICATES FEW OR NO CLOUDS BELOW 12,000 FEET WITH NO
SIGNIFICANT WEATHER AND/OR OBSTRUCTIONS TO VISIBILITY.

* THESE STATIONS ARE NOT UNDER NWS QUALITY CONTROL. THEY ALSO MAY NOT
  REPORT WEATHER SUCH AS PRECIPITATION OR FOG.

INZ001>027-211800-
NORTHERN INDIANA

CITY           SKY/WX    TMP DP  RH WIND       PRES   REMARKS
GARY*          PTSUNNY   61  55  82 S5        29.96F
MICHIGAN CITY* CLOUDY    59  55  88 SW5       29.96F
LAPORTE*       RAIN      54  52  94 SW5       29.98R
KNOX*          CLOUDY    54  43  66 SW5       29.97S
SOUTH BEND     CLOUDY    54  53  97 S8        29.97F
ELKHART*       LGT RAIN  54  50  87 CALM      29.97S
GOSHEN         CLOUDY    56  49  77 S8        29.98R
WARSAW*        CLOUDY    57  50  77 S3        29.97F
ANGOLA*        MOSUNNY   54  52  94 SW7       29.96S
FORT WAYNE     CLOUDY    57  46  66 SW9       30.00S
PERU/GRISSOM   LGT RAIN  57  50  77 SW6       29.98S

$$
INZ028>050-211800-
CENTRAL INDIANA

CITY           SKY/WX    TMP DP  RH WIND       PRES   REMARKS
LAFAYETTE      LGT RAIN  58  49  72 CALM      29.97F
KOKOMO*        LGT RAIN  57  50  77 W3        30.00S
MUNCIE*        CLOUDY    62  45  53 SW6       29.99S
INDIANAPOLIS   CLOUDY    60  47  61 S8        29.99S

$$
MIZ043>046-050>051-056>058-064>065-071>073-077>080-211800-
SOUTHWEST LOWER MICHIGAN

CITY           SKY/WX    TMP DP  RH WIND       PRES   REMARKS
BATTLE CREEK   CLOUDY    55  52  89 SW9       29.95F
BENTON HARBOR  MOSUNNY   60  53  77 SW8       29.95S
COLDWATER*     DRIZZLE   54  51  92 NW3       29.95F
HILLSDALE*     CLOUDY    52  50  93 W6        29.94F
HOLLAND        FOG       49  47  93 SW10      29.95R VSB 3/4
GRAND RAPIDS   CLOUDY    56  52  86 W12       29.92S
KALAMAZOO      CLOUDY    54  51  90 SW9       29.95S
STURGIS*       LGT RAIN  52  51  97 S6        29.96R
THREE RIVERS*  LGT RAIN  52  51  95 CALM      29.96S

$$
OHZ001>008-015>018-024>025-211800-
NORTHWEST OHIO

CITY           SKY/WX    TMP DP  RH WIND       PRES   REMARKS
DEFIANCE       CLOUDY    54  43  66 W6        29.97F
FINDLAY        CLOUDY    62  43  49 W10       29.97S
TOLEDO EXPRESS MOSUNNY   54  44  69 W10       29.97S
TOLEDO METCALF CLOUDY    56  44  64 W9        29.98S
LIMA           CLOUDY    60  46  59 SW8       29.99S

$$
AND FOR LAKE MICHIGAN COASTAL AND OPEN LAKE BUOY OBSERVATIONS

STATION/POSITION TEMP    WIND        PRES    VSBY  WAVE
                 AIR SEA DIR/SP/G                  HT/PER
                 (F)     (DEG/KT/KT) (MB)    (MI)  (FT/S)
CALUMET HARBOR    58     210/  5/  7 1013.9F
MICHIGAN CITY     57     150/  8/  9   N/A
BURNS HARBOR      56     200/  8/ 10 1014.9S

$$
&&



USA.gov is the U.S. government's official web portal to all federal, state and local government web resources and services.